Location: Mannheim
(49.4880°N, 8.4650°E)
Time: 20:47:12
(UTC+02:00)

ISS - Pass Details

Date: 24 September 2022
Orbit: 414 x 417 km, 51.6° (Epoch: 24 September)

Event Time Altitude Azimuth Distance (km) Brightness Sun altitude
Rises 21:19:45 0° 282° (WNW) 2,363 1.6 -19.8°
Reaches altitude 10° 21:21:52 10° 286° (WNW) 1,499 0.2 -20.1°
Enters shadow 21:25:11 63° 6° (N) 473 -3.5 -20.6°
